When you browse on this site, cookies collect data to enhance your experience and personalize the content and advertising you see.
Visit our Privacy Policy to learn more. By continuing to use the site, you agree to this use of cookies and data.
  • In United Kingdom
  • List of Countries
  • For 7 days
  • Water Temperature
  • Weather Map
  • Weather Widgets
  • user-avatar
    Login

    Hourly Weather Pivdenne

    Today, 4 June, Thursday

    Time Temperature Precipitation Wind Pressure Humidity
    00:00 +12°C° 0 mm 3 mps 749 mmHg 78%
    01:00 +12°C° 0 mm 4 mps 749 mmHg 80%
    02:00 +11°C° 0 mm 3 mps 749 mmHg 85%
    03:00 +11°C° 0 mm 3 mps 749 mmHg 84%
    04:00 +11°C° 0 mm 3 mps 749 mmHg 82%
    05:00 +11°C° 0 mm 3 mps 749 mmHg 80%
    06:00 +13°C° 0 mm 4 mps 749 mmHg 74%
    07:00 +15°C° 0 mm 4 mps 749 mmHg 68%
    08:00 +17°C° 0 mm 5 mps 750 mmHg 61%
    09:00 +19°C° 0.1 mm 5 mps 750 mmHg 58%
    10:00 +20°C° 0.1 mm 6 mps 750 mmHg 55%
    11:00 +21°C° 0.1 mm 7 mps 750 mmHg 52%
    12:00 +21°C° 0.3 mm 7 mps 750 mmHg 52%
    13:00 +21°C° 0.3 mm 7 mps 750 mmHg 53%
    14:00 +21°C° 0.3 mm 7 mps 750 mmHg 53%
    15:00 +21°C° 0 mm 7 mps 750 mmHg 55%
    16:00 +21°C° 0 mm 7 mps 750 mmHg 56%
    17:00 +21°C° 0 mm 7 mps 750 mmHg 58%
    18:00 +20°C° 0 mm 7 mps 750 mmHg 61%
    19:00 +18°C° 0 mm 7 mps 750 mmHg 64%
    20:00 +17°C° 0 mm 7 mps 750 mmHg 67%
    21:00 +16°C° 0 mm 7 mps 750 mmHg 72%
    22:00 +16°C° 0 mm 7 mps 750 mmHg 76%
    23:00 +15°C° 0 mm 7 mps 750 mmHg 81%

    Tomorrow, 5 June, Friday

    Time Temperature Precipitation Wind Pressure Humidity
    00:00 +15°C° 0 mm 6 mps 750 mmHg 82%
    01:00 +16°C° 0 mm 6 mps 750 mmHg 83%
    02:00 +16°C° 0 mm 6 mps 750 mmHg 84%
    03:00 +16°C° 0 mm 6 mps 750 mmHg 84%
    04:00 +16°C° 0 mm 6 mps 750 mmHg 83%
    05:00 +16°C° 0 mm 6 mps 750 mmHg 83%
    06:00 +19°C° 0 mm 6 mps 750 mmHg 76%
    07:00 +20°C° 0 mm 7 mps 750 mmHg 69%
    08:00 +22°C° 0 mm 7 mps 751 mmHg 62%
    09:00 +23°C° 0 mm 7 mps 751 mmHg 59%
    10:00 +24°C° 0 mm 7 mps 751 mmHg 57%
    11:00 +26°C° 0 mm 7 mps 751 mmHg 54%
    12:00 +26°C° 0 mm 8 mps 751 mmHg 55%
    13:00 +26°C° 0 mm 8 mps 751 mmHg 55%
    14:00 +26°C° 0 mm 8 mps 751 mmHg 56%
    15:00 +24°C° 0 mm 8 mps 751 mmHg 60%
    16:00 +23°C° 0 mm 8 mps 750 mmHg 64%
    17:00 +22°C° 0 mm 8 mps 750 mmHg 68%
    18:00 +21°C° 0 mm 8 mps 750 mmHg 70%
    19:00 +20°C° 0 mm 7 mps 751 mmHg 72%
    20:00 +18°C° 0 mm 7 mps 751 mmHg 75%
    21:00 +18°C° 0 mm 7 mps 751 mmHg 74%
    22:00 +18°C° 0 mm 7 mps 751 mmHg 74%
    23:00 +17°C° 0 mm 7 mps 752 mmHg 74%

    Day after tomorrow, 6 June, Saturday

    Time Temperature Precipitation Wind Pressure Humidity
    00:00 +17°C° 0 mm 7 mps 752 mmHg 75%
    01:00 +17°C° 0 mm 6 mps 752 mmHg 77%
    02:00 +17°C° 0 mm 6 mps 752 mmHg 78%
    03:00 +17°C° 0 mm 6 mps 752 mmHg 79%
    04:00 +17°C° 0 mm 5 mps 752 mmHg 80%
    05:00 +16°C° 0 mm 5 mps 752 mmHg 82%
    06:00 +19°C° 0 mm 6 mps 752 mmHg 74%
    07:00 +21°C° 0 mm 6 mps 753 mmHg 66%
    08:00 +23°C° 0 mm 7 mps 753 mmHg 58%
    09:00 +24°C° 0 mm 7 mps 753 mmHg 55%
    10:00 +24°C° 0 mm 8 mps 753 mmHg 52%
    11:00 +26°C° 0 mm 8 mps 753 mmHg 49%
    12:00 +26°C° 0 mm 7 mps 753 mmHg 51%
    13:00 +26°C° 0 mm 7 mps 753 mmHg 52%
    14:00 +26°C° 0 mm 6 mps 753 mmHg 53%
    15:00 +24°C° 0 mm 6 mps 753 mmHg 59%
    16:00 +23°C° 0 mm 6 mps 753 mmHg 65%
    17:00 +22°C° 0 mm 6 mps 753 mmHg 70%
    18:00 +21°C° 0 mm 5 mps 753 mmHg 77%
    19:00 +19°C° 0 mm 4 mps 753 mmHg 83%
    20:00 +18°C° 0 mm 4 mps 753 mmHg 90%
    21:00 +17°C° 0 mm 4 mps 753 mmHg 90%
    22:00 +17°C° 0 mm 4 mps 753 mmHg 91%
    23:00 +17°C° 0 mm 4 mps 753 mmHg 91%

    7 June, Sunday

    Time Temperature Precipitation Wind Pressure Humidity
    00:00 +17°C° 0 mm 4 mps 753 mmHg 89%
    01:00 +17°C° 0 mm 3 mps 753 mmHg 88%
    02:00 +16°C° 0 mm 3 mps 753 mmHg 86%
    03:00 +17°C° 0 mm 3 mps 753 mmHg 84%
    04:00 +17°C° 0 mm 3 mps 753 mmHg 82%
    05:00 +17°C° 0 mm 3 mps 753 mmHg 81%
    06:00 +18°C° 0 mm 4 mps 753 mmHg 75%
    07:00 +20°C° 0 mm 4 mps 753 mmHg 69%
    08:00 +21°C° 0 mm 5 mps 753 mmHg 64%
    09:00 +23°C° 0 mm 6 mps 753 mmHg 59%
    10:00 +24°C° 0 mm 6 mps 753 mmHg 55%
    11:00 +26°C° 0 mm 7 mps 753 mmHg 51%
    12:00 +26°C° 0 mm 7 mps 752 mmHg 51%
    13:00 +27°C° 0 mm 6 mps 752 mmHg 51%
    14:00 +27°C° 0 mm 6 mps 751 mmHg 51%
    15:00 +27°C° 0 mm 5 mps 751 mmHg 53%
    16:00 +26°C° 0 mm 5 mps 751 mmHg 54%
    17:00 +26°C° 0 mm 5 mps 750 mmHg 56%
    18:00 +23°C° 0 mm 4 mps 750 mmHg 62%
    19:00 +21°C° 0 mm 4 mps 751 mmHg 67%
    20:00 +19°C° 0 mm 3 mps 751 mmHg 73%
    21:00 +18°C° 0 mm 3 mps 751 mmHg 77%
    22:00 +17°C° 0 mm 3 mps 751 mmHg 82%
    23:00 +17°C° 0 mm 3 mps 751 mmHg 86%

    8 June, Monday

    Time Temperature Precipitation Wind Pressure Humidity
    00:00 +16°C° 0 mm 2 mps 751 mmHg 88%
    01:00 +16°C° 0 mm 2 mps 751 mmHg 91%
    02:00 +16°C° 0 mm 2 mps 750 mmHg 93%
    03:00 +16°C° 0 mm 2 mps 751 mmHg 93%
    04:00 +16°C° 0 mm 1 mps 751 mmHg 93%
    05:00 +18°C° 0 mm 1 mps 751 mmHg 92%
    06:00 +19°C° 0 mm 2 mps 751 mmHg 85%
    07:00 +20°C° 0 mm 2 mps 751 mmHg 78%
    08:00 +23°C° 0 mm 2 mps 751 mmHg 71%
    09:00 +25°C° 0 mm 2 mps 751 mmHg 66%
    10:00 +26°C° 0 mm 3 mps 751 mmHg 61%
    11:00 +28°C° 0 mm 3 mps 752 mmHg 56%
    12:00 +28°C° 0 mm 3 mps 751 mmHg 55%
    13:00 +28°C° 0 mm 4 mps 751 mmHg 53%
    14:00 +29°C° 0 mm 4 mps 751 mmHg 52%
    15:00 +28°C° 0 mm 4 mps 751 mmHg 55%
    16:00 +27°C° 0 mm 4 mps 750 mmHg 57%
    17:00 +27°C° 0 mm 4 mps 750 mmHg 60%
    18:00 +25°C° 0 mm 4 mps 750 mmHg 66%
    19:00 +22°C° 0 mm 3 mps 751 mmHg 73%
    20:00 +20°C° 0 mm 3 mps 751 mmHg 79%
    21:00 +20°C° 0 mm 2 mps 751 mmHg 79%
    22:00 +20°C° 0 mm 2 mps 751 mmHg 80%
    23:00 +20°C° 0 mm 1 mps 751 mmHg 80%

    9 June, Tuesday

    Time Temperature Precipitation Wind Pressure Humidity
    00:00 +20°C° 0 mm 1 mps 751 mmHg 81%
    01:00 +20°C° 0 mm 1 mps 751 mmHg 81%
    02:00 +18°C° 0 mm 0 mps 751 mmHg 82%
    03:00 +20°C° 0 mm 1 mps 751 mmHg 81%
    04:00 +20°C° 0 mm 1 mps 751 mmHg 81%
    05:00 +20°C° 0 mm 1 mps 751 mmHg 81%
    06:00 +22°C° 0 mm 1 mps 751 mmHg 74%
    07:00 +23°C° 0 mm 1 mps 751 mmHg 67%
    08:00 +25°C° 0 mm 2 mps 752 mmHg 60%
    09:00 +26°C° 0 mm 2 mps 752 mmHg 55%
    10:00 +28°C° 0 mm 2 mps 752 mmHg 50%
    11:00 +29°C° 0 mm 2 mps 752 mmHg 44%
    12:00 +29°C° 0 mm 2 mps 752 mmHg 43%
    13:00 +30°C° 0 mm 2 mps 752 mmHg 42%
    14:00 +30°C° 0 mm 3 mps 751 mmHg 41%
    15:00 +30°C° 0 mm 2 mps 751 mmHg 42%
    16:00 +29°C° 0 mm 2 mps 751 mmHg 43%
    17:00 +29°C° 0 mm 2 mps 751 mmHg 44%
    18:00 +27°C° 0 mm 2 mps 751 mmHg 50%
    19:00 +25°C° 0 mm 2 mps 751 mmHg 56%
    20:00 +23°C° 0 mm 2 mps 751 mmHg 62%
    21:00 +22°C° 0 mm 1 mps 751 mmHg 64%
    22:00 +22°C° 0 mm 1 mps 751 mmHg 66%
    23:00 +21°C° 0 mm 1 mps 752 mmHg 68%
    Show more